When you browse on this site, cookies collect data to enhance your experience and personalize the content and advertising you see.
Visit our Privacy Policy to learn more. By continuing to use the site, you agree to this use of cookies and data.
  • în România
  • Lista ţărilor
  • Pe 7 zile
  • Temperatura apei
  • Meteo pe hartă
  • Widget-uri
  • user-avatar
    Intrare

    Meteo pe oră la Albany

    Astăzi, 13 Decembrie, Vineri

    Timp Temperatura Precipitaţii Vânt Presiune Umiditate
    00:00 +15°C° 0 mm 5 m/s 761 mmHg 87%
    01:00 +14°C° 0 mm 5 m/s 761 mmHg 89%
    02:00 +14°C° 0 mm 5 m/s 761 mmHg 93%
    03:00 +14°C° 0 mm 4 m/s 760 mmHg 92%
    04:00 +14°C° 0 mm 4 m/s 760 mmHg 91%
    05:00 +14°C° 0 mm 3 m/s 760 mmHg 91%
    06:00 +18°C° 0 mm 3 m/s 760 mmHg 75%
    07:00 +22°C° 0 mm 3 m/s 760 mmHg 60%
    08:00 +27°C° 0 mm 3 m/s 760 mmHg 44%
    09:00 +29°C° 0 mm 3 m/s 760 mmHg 39%
    10:00 +33°C° 0 mm 3 m/s 760 mmHg 33%
    11:00 +35°C° 0 mm 3 m/s 760 mmHg 28%
    12:00 +34°C° 0 mm 4 m/s 759 mmHg 31%
    13:00 +33°C° 0 mm 5 m/s 758 mmHg 35%
    14:00 +32°C° 0 mm 6 m/s 758 mmHg 38%
    15:00 +30°C° 0 mm 5 m/s 758 mmHg 42%
    16:00 +29°C° 0 mm 5 m/s 758 mmHg 45%
    17:00 +28°C° 0 mm 4 m/s 758 mmHg 48%
    18:00 +25°C° 0 mm 4 m/s 758 mmHg 56%
    19:00 +22°C° 0 mm 3 m/s 758 mmHg 64%
    20:00 +20°C° 0 mm 3 m/s 758 mmHg 72%
    21:00 +19°C° 0 mm 2 m/s 758 mmHg 71%
    22:00 +19°C° 0 mm 2 m/s 758 mmHg 71%
    23:00 +19°C° 0 mm 2 m/s 758 mmHg 70%

    Mâine, 14 Decembrie, Sâmbătă

    Timp Temperatura Precipitaţii Vânt Presiune Umiditate
    00:00 +18°C° 0 mm 2 m/s 758 mmHg 70%
    01:00 +19°C° 0 mm 1 m/s 757 mmHg 70%
    02:00 +19°C° 0 mm 1 m/s 757 mmHg 70%
    03:00 +19°C° 0 mm 1 m/s 756 mmHg 67%
    04:00 +18°C° 0 mm 1 m/s 756 mmHg 65%
    05:00 +18°C° 0 mm 1 m/s 756 mmHg 63%
    06:00 +22°C° 0 mm 1 m/s 756 mmHg 54%
    07:00 +25°C° 0 mm 1 m/s 756 mmHg 45%
    08:00 +28°C° 0 mm 1 m/s 756 mmHg 36%
    09:00 +30°C° 0 mm 1 m/s 755 mmHg 34%
    10:00 +32°C° 0 mm 2 m/s 755 mmHg 32%
    11:00 +34°C° 0 mm 3 m/s 755 mmHg 30%
    12:00 +34°C° 0 mm 3 m/s 754 mmHg 32%
    13:00 +34°C° 0 mm 4 m/s 753 mmHg 33%
    14:00 +33°C° 0 mm 5 m/s 753 mmHg 35%
    15:00 +32°C° 0 mm 5 m/s 753 mmHg 37%
    16:00 +30°C° 0 mm 4 m/s 752 mmHg 40%
    17:00 +28°C° 0 mm 3 m/s 752 mmHg 42%
    18:00 +26°C° 0 mm 3 m/s 753 mmHg 49%
    19:00 +24°C° 0 mm 2 m/s 753 mmHg 57%
    20:00 +20°C° 0 mm 2 m/s 753 mmHg 64%
    21:00 +20°C° 0 mm 2 m/s 753 mmHg 64%
    22:00 +19°C° 0 mm 2 m/s 753 mmHg 64%
    23:00 +19°C° 0 mm 2 m/s 754 mmHg 63%

    Poimâine, 15 Decembrie, Duminică

    Timp Temperatura Precipitaţii Vânt Presiune Umiditate
    00:00 +19°C° 0 mm 2 m/s 753 mmHg 61%
    01:00 +19°C° 0 mm 2 m/s 752 mmHg 58%
    02:00 +19°C° 0 mm 3 m/s 751 mmHg 56%
    03:00 +19°C° 0 mm 2 m/s 751 mmHg 51%
    04:00 +20°C° 0 mm 2 m/s 751 mmHg 47%
    05:00 +20°C° 0 mm 2 m/s 751 mmHg 43%
    06:00 +25°C° 0 mm 2 m/s 750 mmHg 36%
    07:00 +29°C° 0 mm 2 m/s 750 mmHg 30%
    08:00 +34°C° 0 mm 2 m/s 750 mmHg 23%
    09:00 +35°C° 0 mm 2 m/s 750 mmHg 21%
    10:00 +37°C° 0 mm 3 m/s 750 mmHg 20%
    11:00 +39°C° 0 mm 3 m/s 749 mmHg 18%
    12:00 +36°C° 0 mm 4 m/s 749 mmHg 23%
    13:00 +34°C° 0 mm 5 m/s 748 mmHg 27%
    14:00 +32°C° 0 mm 6 m/s 748 mmHg 32%
    15:00 +30°C° 0 mm 5 m/s 748 mmHg 37%
    16:00 +28°C° 0 mm 5 m/s 748 mmHg 43%
    17:00 +27°C° 0 mm 5 m/s 749 mmHg 49%
    18:00 +23°C° 0 mm 4 m/s 749 mmHg 60%
    19:00 +21°C° 0 mm 3 m/s 750 mmHg 70%
    20:00 +19°C° 0 mm 2 m/s 751 mmHg 81%
    21:00 +19°C° 0 mm 2 m/s 751 mmHg 84%
    22:00 +18°C° 0 mm 3 m/s 751 mmHg 86%
    23:00 +18°C° 0 mm 3 m/s 751 mmHg 89%

    16 Decembrie, Luni

    Timp Temperatura Precipitaţii Vânt Presiune Umiditate
    00:00 +18°C° 0 mm 3 m/s 751 mmHg 87%
    01:00 +18°C° 0 mm 3 m/s 751 mmHg 86%
    02:00 +18°C° 0 mm 3 m/s 750 mmHg 84%
    03:00 +17°C° 0 mm 2 m/s 750 mmHg 86%
    04:00 +17°C° 0 mm 2 m/s 751 mmHg 88%
    05:00 +16°C° 0 mm 1 m/s 751 mmHg 89%
    06:00 +18°C° 0 mm 2 m/s 751 mmHg 81%
    07:00 +20°C° 0 mm 3 m/s 752 mmHg 74%
    08:00 +22°C° 0 mm 4 m/s 752 mmHg 66%
    09:00 +22°C° 0 mm 4 m/s 752 mmHg 63%
    10:00 +23°C° 0 mm 4 m/s 753 mmHg 61%
    11:00 +25°C° 0 mm 4 m/s 753 mmHg 58%
    12:00 +25°C° 0 mm 4 m/s 752 mmHg 57%
    13:00 +26°C° 0 mm 4 m/s 752 mmHg 56%
    14:00 +26°C° 0 mm 4 m/s 752 mmHg 55%
    15:00 +25°C° 0 mm 4 m/s 752 mmHg 60%
    16:00 +23°C° 0 mm 5 m/s 753 mmHg 64%
    17:00 +22°C° 0 mm 5 m/s 753 mmHg 69%
    18:00 +21°C° 0 mm 5 m/s 753 mmHg 75%
    19:00 +20°C° 0 mm 4 m/s 754 mmHg 80%
    20:00 +18°C° 0 mm 4 m/s 754 mmHg 85%
    21:00 +18°C° 0 mm 4 m/s 755 mmHg 85%
    22:00 +18°C° 0 mm 3 m/s 755 mmHg 84%
    23:00 +18°C° 0 mm 3 m/s 756 mmHg 84%

    17 Decembrie, Marţi

    Timp Temperatura Precipitaţii Vânt Presiune Umiditate
    00:00 +18°C° 0 mm 2 m/s 756 mmHg 83%
    01:00 +18°C° 0 mm 2 m/s 756 mmHg 83%
    02:00 +19°C° 0 mm 1 m/s 755 mmHg 83%
    03:00 +19°C° 0 mm 1 m/s 756 mmHg 85%
    04:00 +18°C° 0 mm 1 m/s 756 mmHg 86%
    05:00 +17°C° 0 mm 2 m/s 756 mmHg 88%
    06:00 +18°C° 0 mm 2 m/s 756 mmHg 81%
    07:00 +20°C° 0 mm 2 m/s 757 mmHg 74%
    08:00 +21°C° 0 mm 2 m/s 757 mmHg 67%
    09:00 +23°C° 0 mm 2 m/s 757 mmHg 63%
    10:00 +24°C° 0 mm 3 m/s 757 mmHg 59%
    11:00 +25°C° 0 mm 3 m/s 757 mmHg 55%
    12:00 +25°C° 0 mm 4 m/s 757 mmHg 55%
    13:00 +25°C° 0 mm 4 m/s 757 mmHg 54%
    14:00 +25°C° 0 mm 4 m/s 757 mmHg 53%
    15:00 +23°C° 0 mm 4 m/s 757 mmHg 56%
    16:00 +23°C° 0 mm 4 m/s 757 mmHg 58%
    17:00 +22°C° 0 mm 4 m/s 757 mmHg 60%
    18:00 +21°C° 0 mm 4 m/s 758 mmHg 67%
    19:00 +20°C° 0 mm 4 m/s 758 mmHg 73%
    20:00 +18°C° 0 mm 4 m/s 759 mmHg 80%
    21:00 +18°C° 0 mm 4 m/s 759 mmHg 81%
    22:00 +18°C° 0 mm 4 m/s 759 mmHg 82%
    23:00 +17°C° 0 mm 4 m/s 759 mmHg 83%

    18 Decembrie, Miercuri

    Timp Temperatura Precipitaţii Vânt Presiune Umiditate
    00:00 +17°C° 0 mm 4 m/s 759 mmHg 84%
    01:00 +17°C° 0 mm 4 m/s 759 mmHg 85%
    02:00 +17°C° 0 mm 4 m/s 759 mmHg 87%
    03:00 +16°C° 0 mm 3 m/s 758 mmHg 87%
    04:00 +16°C° 0 mm 3 m/s 758 mmHg 88%
    05:00 +16°C° 0 mm 3 m/s 758 mmHg 88%
    06:00 +18°C° 0 mm 4 m/s 758 mmHg 79%
    07:00 +20°C° 0 mm 5 m/s 758 mmHg 69%
    08:00 +22°C° 0 mm 5 m/s 757 mmHg 60%
    09:00 +24°C° 0 mm 6 m/s 757 mmHg 55%
    10:00 +26°C° 0 mm 7 m/s 756 mmHg 51%
    11:00 +28°C° 0 mm 7 m/s 755 mmHg 46%
    12:00 +29°C° 0 mm 7 m/s 754 mmHg 44%
    13:00 +31°C° 0 mm 8 m/s 753 mmHg 43%
    14:00 +32°C° 0 mm 8 m/s 752 mmHg 41%
    15:00 +31°C° 0 mm 8 m/s 752 mmHg 45%
    16:00 +29°C° 0 mm 8 m/s 751 mmHg 48%
    17:00 +28°C° 0 mm 8 m/s 750 mmHg 52%
    18:00 +26°C° 0 mm 6 m/s 751 mmHg 57%
    19:00 +25°C° 0 mm 5 m/s 751 mmHg 63%
    20:00 +22°C° 0 mm 3 m/s 751 mmHg 69%
    21:00 +21°C° 0 mm 3 m/s 751 mmHg 71%
    22:00 +20°C° 0 mm 4 m/s 751 mmHg 74%
    23:00 +19°C° 0 mm 4 m/s 751 mmHg 76%
    Arată mai mult